FW7748 Weather Reports


time (UTC)temp
C
wind
direction
speed
KPH
gust
KPH
rain 1hr
cm
rain 24hr
cm
rain mn
cm
humidity
%
barometer
mb
20260510070039 9 5 0.0 0.0 0.00 0.00 0.00 76 1012.0
20260510065539 9 5 0.0 0.0 0.00 0.00 0.00 76 1011.9
20260510065027 9 5 0.0 1.6 0.00 0.00 0.00 76 1012.1
20260510064525 9 5 0.0 6.4 0.00 0.00 0.00 76 1012.1
20260510064021 9 5 1.6 6.4 0.00 0.00 0.00 76 1011.8
20260510063519 9 5 0.0 0.0 0.00 0.00 0.00 76 1011.6
20260510063013 9 5 0.0 0.0 0.00 0.00 0.00 75 1011.2
20260510062508 9 5 0.0 0.0 0.00 0.00 0.00 75 1011.2
20260510062001 9 5 0.0 0.0 0.00 0.00 0.00 76 1011.3
20260510061601 9 5 0.0 0.0 0.00 0.00 0.00 76 1011.4
20260510061058 9 5 0.0 0.0 0.00 0.00 0.00 76 1011.3
20260510060502 10 5 0.0 0.0 0.00 0.00 0.00 76 1011.4
20260510060055 10 5 0.0 0.0 0.00 0.00 0.00 76 1011.5
20260510055557 10 5 0.0 0.0 0.00 0.00 0.00 76 1011.5
20260510055044 10 5 0.0 0.0 0.00 0.00 0.00 76 1011.7
20260510054546 10 5 0.0 0.0 0.00 0.00 0.00 76 1011.7
20260510054044 10 5 0.0 0.0 0.00 0.00 0.00 76 1011.7
20260510053545 10 5 0.0 4.8 0.00 0.00 0.00 76 1011.7
20260510053043 10 5 0.0 4.8 0.00 0.00 0.00 76 1011.8
20260510052547 10 5 0.0 0.0 0.00 0.00 0.00 76 1011.9
20260510052035 10 5 0.0 0.0 0.00 0.00 0.00 76 1011.7
20260510051539 9 5 0.0 0.0 0.00 0.00 0.00 76 1011.4
20260510051031 9 5 0.0 0.0 0.00 0.00 0.00 76 1011.3
20260510050537 9 5 0.0 0.0 0.00 0.00 0.00 76 1011.3
20260510050033 9 5 0.0 0.0 0.00 0.00 0.00 76 1011.3
20260510045531 8 5 0.0 0.0 0.00 0.00 0.00 76 1011.1
20260510045021 8 5 0.0 0.0 0.00 0.00 0.00 76 1011.2
20260510044524 8 5 0.0 0.0 0.00 0.00 0.00 76 1011.3
20260510044011 8 5 0.0 0.0 0.00 0.00 0.00 76 1011.3
20260510043512 8 5 0.0 0.0 0.00 0.00 0.00 75 1011.3
20260510043011 8 5 0.0 0.0 0.00 0.00 0.00 75 1011.4
20260510042509 8 5 0.0 0.0 0.00 0.00 0.00 75 1011.4
20260510042057 8 5 0.0 0.0 0.00 0.00 0.00 75 1011.4
20260510041557 8 5 0.0 0.0 0.00 0.00 0.00 75 1011.4
20260510041057 8 5 0.0 0.0 0.00 0.00 0.00 76 1011.4
20260510040503 8 5 0.0 0.0 0.00 0.00 0.00 75 1011.4
20260510040056 8 5 0.0 0.0 0.00 0.00 0.00 75 1011.3
20260510035543 8 5 0.0 0.0 0.00 0.00 0.00 75 1011.3
20260510035050 8 5 0.0 0.0 0.00 0.00 0.00 75 1011.3
20260510034538 8 5 0.0 0.0 0.00 0.00 0.00 75 1011.3
20260510034036 8 5 0.0 0.0 0.00 0.00 0.00 75 1011.2
20260510033531 8 5 0.0 0.0 0.00 0.00 0.00 75 1011.2
20260510033029 8 5 0.0 0.0 0.00 0.00 0.00 75 1011.2
20260510032523 8 5 0.0 0.0 0.00 0.00 0.00 75 1011.3
20260510032026 8 5 0.0 0.0 0.00 0.00 0.00 75 1011.2
20260510031516 8 5 0.0 0.0 0.00 0.00 0.00 75 1011.1
20260510031014 7 5 0.0 0.0 0.00 0.00 0.00 74 1011.1
20260510030512 7 5 0.0 0.0 0.00 0.00 0.00 74 1011.1
20260510030016 7 5 0.0 0.0 0.00 0.00 0.00 74 1011.1
20260510025602 8 5 0.0 0.0 0.00 0.00 0.00 74 1011.1
20260510025059 8 5 0.0 0.0 0.00 0.00 0.00 74 1011.1
20260510024550 8 5 0.0 0.0 0.00 0.00 0.00 74 1011.2
20260510024043 8 5 0.0 0.0 0.00 0.00 0.00 74 1011.2
20260510023535 8 5 0.0 0.0 0.00 0.00 0.00 74 1011.1
20260510023038 8 5 0.0 0.0 0.00 0.00 0.00 74 1010.9
20260510022529 8 5 0.0 0.0 0.00 0.00 0.00 74 1011.0
20260510022030 8 5 0.0 0.0 0.00 0.00 0.00 74 1010.9
20260510021526 9 5 0.0 0.0 0.00 0.00 0.00 74 1010.9
20260510021021 9 5 0.0 0.0 0.00 0.00 0.00 74 1010.9
20260510020518 9 5 0.0 0.0 0.00 0.00 0.00 74 1010.9
20260510020016 9 5 0.0 0.0 0.00 0.00 0.00 74 1010.8
20260510015506 9 5 0.0 0.0 0.00 0.00 0.00 74 1010.7
20260510015057 9 5 0.0 0.0 0.00 0.00 0.00 74 1010.7
20260510015003 9 5 0.0 0.0 0.00 0.00 0.00 74 1010.7
20260510014600 9 5 0.0 0.0 0.00 0.00 0.00 73 1010.7
20260510014048 9 5 0.0 0.0 0.00 0.00 0.00 73 1010.7
20260510013546 9 5 0.0 0.0 0.00 0.00 0.00 73 1010.7
20260510013037 10 5 0.0 0.0 0.00 0.00 0.00 73 1010.7
20260510012540 10 5 0.0 0.0 0.00 0.00 0.00 73 1010.7
20260510012033 10 5 0.0 0.0 0.00 0.00 0.00 73 1010.7
20260510011536 10 5 0.0 0.0 0.00 0.00 0.00 73 1010.7
20260510011023 10 5 0.0 0.0 0.00 0.00 0.00 73 1010.6
20260510010523 10 5 0.0 0.0 0.00 0.00 0.00 72 1010.5
20260510010018 10 5 0.0 0.0 0.00 0.00 0.00 72 1010.5
20260510005517 11 5 0.0 0.0 0.00 0.00 0.00 72 1010.4
20260510005009 11 5 0.0 0.0 0.00 0.00 0.00 72 1010.3
20260510004511 11 5 0.0 0.0 0.00 0.00 0.00 72 1010.3
20260510004004 11 5 0.0 0.0 0.00 0.00 0.00 72 1010.2
20260510003502 11 5 0.0 0.0 0.00 0.00 0.00 71 1010.1
20260510003059 11 5 0.0 0.0 0.00 0.00 0.00 71 1010.1
20260510002553 11 5 0.0 0.0 0.00 0.00 0.00 70 1010.1
20260510002045 12 5 0.0 0.0 0.00 0.00 0.00 70 1010.0
20260510001544 12 5 0.0 0.0 0.00 0.00 0.00 70 1009.9
20260510001034 12 5 0.0 0.0 0.00 0.00 0.00 70 1009.9
20260510000535 12 5 0.0 0.0 0.00 0.00 0.00 70 1009.8
20260510000025 12 5 0.0 0.0 0.00 0.00 0.00 70 1009.8
20260509235525 13 5 0.0 0.0 0.00 0.00 0.00 69 1009.7
20260509235015 13 5 0.0 0.0 0.00 0.00 0.00 69 1009.6
20260509234529 13 5 0.0 0.0 0.00 0.00 0.00 69 1009.6
20260509234013 13 5 0.0 0.0 0.00 0.00 0.00 69 1009.6
20260509233511 13 5 0.0 0.0 0.00 0.00 0.00 69 1009.6
20260509233003 13 5 0.0 0.0 0.00 0.00 0.00 69 1009.5
20260509232505 14 5 0.0 0.0 0.00 0.00 0.00 69 1009.6
20260509232055 14 5 0.0 0.0 0.00 0.00 0.00 69 1009.5
20260509231554 14 5 0.0 0.0 0.00 0.00 0.00 69 1009.4
20260509231051 15 5 0.0 3.2 0.00 0.00 0.00 69 1009.5
20260509230551 15 5 0.0 3.2 0.00 0.00 0.00 69 1009.5
20260509230043 15 5 0.0 1.6 0.00 0.00 0.00 68 1009.6
20260509225542 15 5 0.0 3.2 0.00 0.00 0.00 68 1009.6
20260509225037 15 5 0.0 3.2 0.00 0.00 0.00 68 1009.6
20260509224538 15 5 0.0 3.2 0.00 0.00 0.00 69 1009.6
20260509224028 15 5 0.0 1.6 0.00 0.00 0.00 69 1009.6
20260509223526 15 5 0.0 4.8 0.00 0.00 0.00 68 1009.5
20260509223018 15 5 0.0 4.8 0.00 0.00 0.00 69 1009.6
20260509222517 15 5 0.0 1.6 0.00 0.00 0.00 69 1009.6
20260509222013 15 5 0.0 1.6 0.00 0.00 0.00 69 1009.6
20260509221511 15 5 0.0 4.8 0.00 0.00 0.00 69 1009.6
20260509221002 15 5 0.0 4.8 0.00 0.00 0.00 69 1009.6
20260509220501 15 5 0.0 4.8 0.00 0.00 0.00 69 1009.6
20260509220055 15 5 0.0 4.8 0.00 0.00 0.00 69 1009.7
20260509215554 15 5 0.0 1.6 0.00 0.00 0.00 69 1009.6
20260509215046 14 5 0.0 1.6 0.00 0.00 0.00 70 1009.7
20260509214544 14 5 0.0 1.6 0.00 0.00 0.00 70 1009.9
20260509214035 13 5 0.0 3.2 0.00 0.00 0.00 70 1010.0
20260509213536 13 5 0.0 3.2 0.00 0.00 0.00 69 1010.0
20260509213045 13 5 0.0 3.2 0.00 0.00 0.00 69 1009.9
20260509212547 13 5 0.0 4.8 0.00 0.00 0.00 70 1009.9
20260509212045 13 5 0.0 4.8 0.00 0.00 0.00 70 1009.8
20260509211549 13 5 0.0 1.6 0.00 0.00 0.00 70 1009.8
20260509211042 13 5 0.0 3.2 0.00 0.00 0.00 70 1009.8
20260509210538 13 5 0.0 3.2 0.00 0.00 0.00 70 1009.9
20260509210028 13 5 0.0 0.0 0.00 0.00 0.00 71 1010.0
20260509205527 13 5 0.0 0.0 0.00 0.00 0.00 71 1010.0
20260509205019 13 5 0.0 0.0 0.00 0.00 0.00 71 1010.0
20260509204520 13 5 0.0 3.2 0.00 0.00 0.00 71 1010.1
20260509204010 12 5 0.0 3.2 0.00 0.00 0.00 71 1010.1
20260509203509 12 5 0.0 1.6 0.00 0.00 0.00 71 1010.1
20260509203101 12 5 0.0 1.6 0.00 0.00 0.00 71 1010.2
20260509202502 12 5 0.0 3.2 0.00 0.00 0.00 71 1010.3
20260509202100 12 5 0.0 4.8 0.00 0.00 0.00 71 1010.3
20260509201601 12 5 0.0 4.8 0.00 0.00 0.00 70 1010.5
20260509201051 12 5 0.0 4.8 0.00 0.00 0.00 70 1010.5
20260509200558 12 5 0.0 1.6 0.00 0.00 0.00 72 1010.6
20260509200045 12 5 0.0 4.8 0.00 0.00 0.00 71 1010.6
20260509195546 12 5 0.0 4.8 0.00 0.00 0.00 72 1010.6
20260509195041 12 5 0.0 4.8 0.00 0.00 0.00 72 1010.6
20260509194540 12 5 0.0 3.2 0.00 0.00 0.00 73 1010.6
20260509194029 12 5 0.0 1.6 0.00 0.00 0.00 73 1010.6
20260509193538 12 5 0.0 0.0 0.00 0.00 0.00 73 1010.6
20260509193028 12 5 0.0 0.0 0.00 0.00 0.00 74 1010.6
20260509192525 12 5 0.0 0.0 0.00 0.00 0.00 73 1010.8
20260509192028 12 5 0.0 0.0 0.00 0.00 0.00 73 1010.7
20260509191537 12 5 0.0 1.6 0.00 0.00 0.00 73 1010.8
20260509191029 12 5 0.0 1.6 0.00 0.00 0.00 73 1010.9
20260509190525 12 5 0.0 0.0 0.00 0.00 0.00 73 1010.9
20260509190018 12 5 0.0 1.6 0.00 0.00 0.00 73 1011.1
20260509185522 12 5 0.0 1.6 0.00 0.00 0.00 73 1011.2
20260509185020 12 5 0.0 0.0 0.00 0.00 0.00 73 1011.5
20260509184526 11 5 0.0 0.0 0.00 0.00 0.00 73 1011.5
20260509184015 11 5 0.0 1.6 0.00 0.00 0.00 73 1011.5
20260509183516 11 5 0.0 0.0 0.00 0.00 0.00 73 1011.6
20260509183010 11 5 0.0 1.6 0.00 0.00 0.00 73 1011.6
20260509182514 11 5 0.0 4.8 0.00 0.00 0.00 73 1011.5
20260509182009 11 5 0.0 4.8 0.00 0.00 0.00 73 1011.5
20260509181509 11 5 0.0 0.0 0.00 0.00 0.00 73 1011.6
20260509181006 11 5 0.0 3.2 0.00 0.00 0.00 73 1011.5
20260509180508 11 5 0.0 3.2 0.00 0.00 0.00 73 1011.5
20260509180001 12 5 0.0 1.6 0.00 0.00 0.00 73 1011.6
20260509175509 12 5 0.0 1.6 0.00 0.00 0.00 73 1011.5
20260509175007 12 5 0.0 3.2 0.00 0.00 0.00 73 1011.4
20260509174600 11 5 0.0 3.2 0.00 0.00 0.00 72 1011.3
20260509174502 11 5 0.0 3.2 0.00 0.00 0.00 72 1011.4
20260509174059 11 5 0.0 6.4 0.00 0.00 0.00 72 1011.5
20260509173549 12 5 0.0 6.4 0.00 0.00 0.00 72 1011.4
20260509173049 12 5 0.0 4.8 0.00 0.00 0.00 73 1011.5
20260509172544 12 5 0.0 1.6 0.00 0.00 0.00 72 1011.6
20260509172045 12 5 0.0 1.6 0.00 0.00 0.00 72 1011.7
20260509171533 12 5 0.0 1.6 0.00 0.00 0.00 72 1011.7
20260509171029 12 5 0.0 0.0 0.00 0.00 0.00 72 1011.6
20260509170526 12 5 0.0 0.0 0.00 0.00 0.00 71 1011.5
20260509170027 12 5 0.0 0.0 0.00 0.00 0.00 71 1011.5
20260509165519 12 5 0.0 1.6 0.00 0.00 0.00 71 1011.8
20260509165025 12 5 0.0 1.6 0.00 0.00 0.00 70 1011.8
20260509164522 12 5 0.0 3.2 0.00 0.00 0.00 70 1011.9
20260509164018 12 5 0.0 4.8 0.00 0.00 0.00 70 1011.9
20260509163505 13 5 0.0 3.2 0.00 0.00 0.00 69 1011.9
20260509163005 13 5 0.0 3.2 0.00 0.00 0.00 69 1011.9
20260509162558 13 5 0.0 4.8 0.00 0.00 0.00 69 1012.0
20260509162058 13 5 0.0 8.0 0.00 0.00 0.00 69 1012.1
20260509161548 13 5 0.0 8.0 0.00 0.00 0.00 69 1012.1
20260509161052 13 5 0.0 9.7 0.00 0.00 0.00 68 1012.1
20260509160539 13 5 3.2 9.7 0.00 0.00 0.00 68 1011.9
20260509160040 13 5 0.0 3.2 0.00 0.00 0.00 68 1012.0
20260509155529 13 5 0.0 8.0 0.00 0.00 0.00 69 1012.1
20260509155030 13 5 0.0 8.0 0.00 0.00 0.00 68 1012.0
20260509154521 13 5 0.0 3.2 0.00 0.00 0.00 68 1012.1
20260509154031 13 5 0.0 4.8 0.00 0.00 0.00 68 1012.1
20260509153523 13 5 0.0 4.8 0.00 0.00 0.00 68 1012.2
20260509153015 13 5 1.6 6.4 0.00 0.00 0.00 69 1012.2
20260509152512 13 5 1.6 6.4 0.00 0.00 0.00 69 1012.2
20260509152026 13 5 0.0 3.2 0.00 0.00 0.00 69 1012.2
20260509151522 13 5 0.0 1.6 0.00 0.00 0.00 69 1012.1
20260509151019 13 5 0.0 1.6 0.00 0.00 0.00 69 1012.1
20260509150512 13 5 0.0 0.0 0.00 0.00 0.00 69 1012.3
20260509150012 13 5 0.0 1.6 0.00 0.00 0.00 69 1012.1
20260509145505 13 5 0.0 1.6 0.00 0.00 0.00 69 1012.2
20260509145006 13 5 0.0 0.0 0.00 0.00 0.00 69 1012.1
20260509144601 12 5 0.0 0.0 0.00 0.00 0.00 69 1011.6
20260509144102 12 5 0.0 0.0 0.00 0.00 0.00 69 1011.7
20260509143551 12 5 0.0 1.6 0.00 0.00 0.00 69 1011.7
20260509143051 12 5 0.0 0.0 0.00 0.00 0.00 69 1011.8
20260509142542 12 5 0.0 1.6 0.00 0.00 0.00 69 1011.8
20260509142046 12 5 0.0 1.6 0.00 0.00 0.00 69 1011.7
20260509141536 12 360 0.0 0.0 0.00 0.00 0.00 69 1011.7
20260509141036 12 360 0.0 0.0 0.00 0.00 0.00 69 1011.8
20260509140531 12 360 0.0 0.0 0.00 0.00 0.00 69 1011.8
20260509140044 12 360 0.0 0.0 0.00 0.00 0.00 69 1011.8
20260509135529 12 360 0.0 0.0 0.00 0.00 0.00 69 1011.9
20260509135029 12 360 0.0 0.0 0.00 0.00 0.00 69 1011.9
20260509134521 12 360 0.0 0.0 0.00 0.00 0.00 69 1011.8
20260509134021 12 360 0.0 0.0 0.00 0.00 0.00 69 1011.9
20260509133514 12 360 0.0 0.0 0.00 0.00 0.00 69 1011.9
20260509133012 12 5 0.0 0.0 0.00 0.00 0.00 69 1011.9
20260509132504 12 5 0.0 0.0 0.00 0.00 0.00 69 1011.9
20260509132004 12 5 0.0 0.0 0.00 0.00 0.00 69 1011.7
20260509131554 12 5 0.0 0.0 0.00 0.00 0.00 69 1011.6
20260509131053 11 5 0.0 1.6 0.00 0.00 0.00 69 1011.5
20260509130546 11 5 0.0 1.6 0.00 0.00 0.00 69 1011.5
20260509130044 11 5 0.0 0.0 0.00 0.00 0.00 69 1011.4
20260509125540 11 5 0.0 1.6 0.00 0.00 0.00 69 1011.4
20260509125034 11 5 0.0 1.6 0.00 0.00 0.00 69 1011.5
20260509124532 11 5 0.0 0.0 0.00 0.00 0.00 69 1011.7
20260509124033 11 5 0.0 1.6 0.00 0.00 0.00 69 1011.8
20260509123534 11 5 0.0 1.6 0.00 0.00 0.00 69 1011.8
20260509123038 11 5 0.0 0.0 0.00 0.00 0.00 69 1011.8
20260509122527 11 5 0.0 0.0 0.00 0.00 0.00 69 1011.7
20260509122027 11 5 0.0 0.0 0.00 0.00 0.00 70 1011.9
20260509121520 11 5 0.0 0.0 0.00 0.00 0.00 69 1011.9
20260509121016 10 5 0.0 0.0 0.00 0.00 0.00 69 1012.1
20260509120508 10 5 0.0 0.0 0.00 0.00 0.00 69 1012.0
20260509120008 10 5 0.0 0.0 0.00 0.00 0.00 70 1012.1
20260509115559 10 5 0.0 0.0 0.00 0.00 0.00 70 1012.0
20260509115100 10 5 0.0 0.0 0.00 0.00 0.00 70 1012.0
20260509115002 10 5 0.0 0.0 0.00 0.00 0.00 70 1012.0
20260509114556 10 5 0.0 0.0 0.00 0.00 0.00 70 1011.9
20260509114054 10 5 0.0 0.0 0.00 0.00 0.00 70 1011.9
20260509113543 10 5 0.0 0.0 0.00 0.00 0.00 70 1011.9
20260509113044 10 5 0.0 1.6 0.00 0.00 0.00 71 1011.9
20260509112535 10 5 0.0 1.6 0.00 0.00 0.00 71 1011.6
20260509112034 10 5 0.0 0.0 0.00 0.00 0.00 71 1011.5
20260509111526 9 5 0.0 0.0 0.00 0.00 0.00 71 1011.6
20260509111024 9 5 0.0 0.0 0.00 0.00 0.00 71 1011.6
20260509110515 9 5 0.0 0.0 0.00 0.00 0.00 72 1011.5
20260509110016 9 5 0.0 0.0 0.00 0.00 0.00 72 1011.4
20260509105505 9 5 0.0 0.0 0.00 0.00 0.00 72 1011.5
20260509105008 9 5 0.0 0.0 0.00 0.00 0.00 72 1011.5
20260509104602 9 5 0.0 0.0 0.00 0.00 0.00 72 1011.8
20260509104054 9 5 0.0 0.0 0.00 0.00 0.00 72 1011.7
20260509103551 9 5 0.0 0.0 0.00 0.00 0.00 72 1011.6
20260509103040 8 5 0.0 0.0 0.00 0.00 0.00 72 1011.5
20260509102539 8 5 0.0 0.0 0.00 0.00 0.00 72 1011.3
20260509102034 8 5 0.0 0.0 0.00 0.00 0.00 72 1011.2
20260509101543 8 5 0.0 0.0 0.00 0.00 0.00 72 1011.3
20260509101031 8 5 0.0 0.0 0.00 0.00 0.00 72 1011.4
20260509100525 8 5 0.0 0.0 0.00 0.00 0.00 72 1011.3
20260509100018 8 5 0.0 0.0 0.00 0.00 0.00 72 1011.2
20260509095518 8 5 0.0 0.0 0.00 0.00 0.00 72 1011.3
20260509095011 8 5 0.0 0.0 0.00 0.00 0.00 72 1011.4
20260509094528 8 5 0.0 0.0 0.00 0.00 0.00 72 1011.5
20260509094023 8 5 0.0 0.0 0.00 0.00 0.00 72 1011.4
20260509093521 8 5 0.0 0.0 0.00 0.00 0.00 72 1011.4
20260509093014 8 5 0.0 0.0 0.00 0.00 0.00 72 1011.5
20260509092513 8 5 0.0 0.0 0.00 0.00 0.00 72 1011.7
20260509092006 8 5 0.0 0.0 0.00 0.00 0.00 72 1011.7
20260509091501 8 5 0.0 0.0 0.00 0.00 0.00 72 1011.7
20260509091105 8 5 0.0 0.0 0.00 0.00 0.00 72 1011.7
20260509090600 8 5 0.0 0.0 0.00 0.00 0.00 72 1011.7
20260509090050 8 5 0.0 0.0 0.00 0.00 0.00 72 1011.8
20260509085549 8 5 0.0 0.0 0.00 0.00 0.00 72 1011.8
20260509085045 8 5 0.0 0.0 0.00 0.00 0.00 72 1011.8
20260509084545 8 5 0.0 0.0 0.00 0.00 0.00 72 1011.8
20260509084035 8 5 0.0 0.0 0.00 0.00 0.00 71 1011.8
20260509083534 8 5 0.0 0.0 0.00 0.00 0.00 71 1011.9
20260509083027 8 5 0.0 0.0 0.00 0.00 0.00 71 1011.9
20260509082527 8 5 0.0 0.0 0.00 0.00 0.00 71 1012.1
20260509082017 8 5 0.0 0.0 0.00 0.00 0.00 71 1012.1
20260509081518 8 5 0.0 0.0 0.00 0.00 0.00 71 1012.1
20260509081010 8 5 0.0 0.0 0.00 0.00 0.00 71 1012.1
20260509080512 8 5 0.0 0.0 0.00 0.00 0.00 70 1012.2
20260509080108 8 5 0.0 0.0 0.00 0.00 0.00 70 1012.1
20260509075503 8 5 0.0 0.0 0.00 0.00 0.00 70 1012.2
20260509075100 8 5 0.0 0.0 0.00 0.00 0.00 70 1012.2
20260509074602 8 5 0.0 0.0 0.00 0.00 0.00 70 1012.1
20260509074051 9 5 0.0 0.0 0.00 0.00 0.00 70 1012.1
20260509073522 9 5 0.0 0.0 0.00 0.00 0.00 70 1012.1
20260509073028 9 5 0.0 0.0 0.00 0.00 0.00 70 1012.1
20260509072518 9 5 0.0 0.0 0.00 0.00 0.00 70 1012.1
20260509072005 9 5 0.0 0.0 0.00 0.00 0.00 70 1012.1
20260509071505 9 5 0.0 0.0 0.00 0.00 0.00 70 1012.1
20260509071055 9 5 0.0 0.0 0.00 0.00 0.00 70 1012.1
20260509070559 9 5 0.0 0.0 0.00 0.00 0.00 69 1012.1